Wetterdaten: Woche 08.01.18 - 14.01.18 (KW2)
Datum Zeit Temp. I. Temp. A. Feuchte I. Feuchte A. Luftdruck Regen Wind Richtung Sonnenschein UV Solar Taupunkt Windchill Windben
08.01.2018 00:00 24,0 C 3,1 C 60 % 93 % 1025,1 hPa 0,0 l/m 6,8 km/h (2 Bft) NO 0,00 h 0,0 UV-I 0 W/m 2,1 C 2,0 C 13,2 km/h (3 Bft)
08.01.2018 01:00 23,7 C 3,0 C 61 % 93 % 1024,8 hPa 0,0 l/m 7,0 km/h (2 Bft) O-NO 0,00 h 0,0 UV-I 0 W/m 2,0 C 1,7 C 13,5 km/h (3 Bft)
08.01.2018 02:00 23,5 C 2,9 C 62 % 93 % 1025,1 hPa 0,0 l/m 6,3 km/h (2 Bft) O-NO 0,00 h 0,0 UV-I 0 W/m 1,9 C 2,0 C 12,1 km/h (2 Bft)
08.01.2018 03:00 23,3 C 2,9 C 62 % 93 % 1025,2 hPa 0,0 l/m 6,2 km/h (2 Bft) O-NO 0,00 h 0,0 UV-I 0 W/m 1,9 C 2,0 C 12,3 km/h (3 Bft)
08.01.2018 04:00 23,3 C 2,8 C 62 % 93 % 1025,6 hPa 0,0 l/m 6,4 km/h (2 Bft) O-NO 0,00 h 0,0 UV-I 0 W/m 1,8 C 1,9 C 13,0 km/h (3 Bft)
08.01.2018 05:00 23,2 C 2,8 C 62 % 93 % 1025,6 hPa 0,0 l/m 5,6 km/h (1 Bft) O-NO 0,00 h 0,0 UV-I 0 W/m 1,8 C 2,1 C 11,4 km/h (2 Bft)
08.01.2018 06:00 23,2 C 2,7 C 62 % 93 % 1025,9 hPa 0,0 l/m 5,6 km/h (1 Bft) O-NO 0,00 h 0,0 UV-I 0 W/m 1,7 C 2,0 C 11,6 km/h (2 Bft)
08.01.2018 07:00 23,2 C 2,7 C 62 % 93 % 1026,2 hPa 0,0 l/m 5,7 km/h (1 Bft) O-NO 0,00 h 0,0 UV-I 0 W/m 1,7 C 1,9 C 10,9 km/h (2 Bft)
08.01.2018 08:00 23,2 C 2,6 C 61 % 93 % 1026,4 hPa 0,0 l/m 7,4 km/h (2 Bft) O-NO 0,00 h 0,0 UV-I 6 W/m 1,6 C 1,1 C 13,5 km/h (3 Bft)
08.01.2018 09:00 23,2 C 2,6 C 60 % 94 % 1026,6 hPa 0,0 l/m 7,9 km/h (2 Bft) O-NO 0,00 h 0,0 UV-I 15 W/m 1,7 C 0,7 C 14,0 km/h (3 Bft)
08.01.2018 10:00 23,2 C 2,7 C 58 % 93 % 1026,7 hPa 0,0 l/m 8,6 km/h (2 Bft) O-NO 0,00 h 0,0 UV-I 36 W/m 1,7 C 0,6 C 16,2 km/h (3 Bft)
08.01.2018 11:00 23,1 C 3,0 C 56 % 93 % 1026,7 hPa 0,0 l/m 7,1 km/h (2 Bft) O-NO 0,00 h 0,0 UV-I 50 W/m 1,9 C 1,8 C 13,7 km/h (3 Bft)
08.01.2018 12:00 23,1 C 3,1 C 57 % 92 % 1026,0 hPa 0,0 l/m 8,7 km/h (2 Bft) O-NO 0,00 h 0,0 UV-I 48 W/m 2,0 C 0,9 C 15,5 km/h (3 Bft)
08.01.2018 13:00 23,2 C 3,1 C 56 % 92 % 1025,5 hPa 0,0 l/m 7,7 km/h (2 Bft) O-NO 0,00 h 0,0 UV-I 37 W/m 1,9 C 1,4 C 14,7 km/h (3 Bft)
08.01.2018 14:00 23,2 C 3,1 C 55 % 93 % 1025,0 hPa 0,0 l/m 9,7 km/h (2 Bft) O-NO 0,00 h 0,0 UV-I 35 W/m 2,1 C 0,3 C 17,9 km/h (3 Bft)
08.01.2018 15:00 23,1 C 3,2 C 55 % 93 % 1024,7 hPa 0,0 l/m 12,4 km/h (3 Bft) O-NO 0,00 h 0,0 UV-I 30 W/m 2,1 C -1,4 C 21,3 km/h (4 Bft)
08.01.2018 16:00 23,1 C 3,1 C 54 % 92 % 1024,6 hPa 0,0 l/m 11,9 km/h (2 Bft) O-NO 0,00 h 0,0 UV-I 14 W/m 2,0 C -1,1 C 21,7 km/h (4 Bft)
08.01.2018 17:00 23,0 C 3,0 C 55 % 93 % 1024,7 hPa 0,0 l/m 8,9 km/h (2 Bft) NO 0,00 h 0,0 UV-I 0 W/m 2,0 C 0,6 C 17,0 km/h (3 Bft)
08.01.2018 18:00 23,1 C 3,1 C 56 % 93 % 1024,8 hPa 0,0 l/m 6,6 km/h (2 Bft) O-NO 0,00 h 0,0 UV-I 0 W/m 2,1 C 1,8 C 13,7 km/h (3 Bft)
08.01.2018 19:00 23,1 C 3,2 C 57 % 93 % 1024,7 hPa 0,0 l/m 7,5 km/h (2 Bft) O-NO 0,00 h 0,0 UV-I 0 W/m 2,1 C 1,5 C 14,9 km/h (3 Bft)
08.01.2018 20:00 23,2 C 3,2 C 57 % 93 % 1024,2 hPa 0,0 l/m 7,3 km/h (2 Bft) O-NO 0,00 h 0,0 UV-I 0 W/m 2,2 C 1,8 C 14,8 km/h (3 Bft)
08.01.2018 21:00 23,2 C 3,5 C 58 % 93 % 1023,9 hPa 0,0 l/m 6,9 km/h (2 Bft) O-NO 0,00 h 0,0 UV-I 0 W/m 2,4 C 2,3 C 14,0 km/h (3 Bft)
08.01.2018 22:00 23,2 C 3,7 C 58 % 93 % 1023,5 hPa 0,0 l/m 6,7 km/h (2 Bft) O-NO 0,00 h 0,0 UV-I 0 W/m 2,6 C 2,6 C 13,0 km/h (3 Bft)
08.01.2018 23:00 23,2 C 4,0 C 58 % 93 % 1022,6 hPa 0,0 l/m 5,0 km/h (1 Bft) O-NO 0,00 h 0,0 UV-I 0 W/m 2,9 C 3,4 C 10,9 km/h (2 Bft)
09.01.2018 00:00 23,1 C 3,9 C 59 % 93 % 1022,0 hPa 0,2 l/m 5,6 km/h (1 Bft) O 0,00 h 0,0 UV-I 0 W/m 2,9 C 3,2 C 12,7 km/h (3 Bft)
09.01.2018 01:00 22,9 C 4,0 C 61 % 93 % 1021,4 hPa 0,0 l/m 3,1 km/h (1 Bft) O-NO 0,00 h 0,0 UV-I 0 W/m 3,0 C 3,8 C 7,3 km/h (2 Bft)
09.01.2018 02:00 22,8 C 4,0 C 61 % 93 % 1020,5 hPa 0,0 l/m 8,5 km/h (2 Bft) O 0,00 h 0,0 UV-I 0 W/m 3,0 C 1,7 C 18,1 km/h (3 Bft)
09.01.2018 03:00 22,8 C 4,0 C 61 % 94 % 1019,7 hPa 0,0 l/m 6,4 km/h (2 Bft) O 0,00 h 0,0 UV-I 0 W/m 3,1 C 2,7 C 13,8 km/h (3 Bft)
09.01.2018 04:00 22,8 C 4,1 C 60 % 94 % 1019,1 hPa 0,0 l/m 5,7 km/h (1 Bft) O-SO 0,00 h 0,0 UV-I 0 W/m 3,2 C 3,1 C 12,9 km/h (3 Bft)
09.01.2018 05:00 22,7 C 4,1 C 60 % 94 % 1018,6 hPa 0,0 l/m 5,2 km/h (1 Bft) O 0,00 h 0,0 UV-I 0 W/m 3,3 C 3,4 C 11,7 km/h (2 Bft)
09.01.2018 06:00 22,9 C 4,4 C 60 % 94 % 1017,7 hPa 0,0 l/m 5,6 km/h (1 Bft) O-NO 0,00 h 0,0 UV-I 0 W/m 3,5 C 3,8 C 12,2 km/h (2 Bft)
09.01.2018 07:00 23,0 C 4,8 C 59 % 94 % 1017,1 hPa 0,0 l/m 5,6 km/h (1 Bft) O 0,00 h 0,0 UV-I 0 W/m 3,9 C 4,0 C 13,2 km/h (3 Bft)
09.01.2018 08:00 22,9 C 5,3 C 58 % 94 % 1016,5 hPa 0,0 l/m 5,9 km/h (2 Bft) O-SO 0,00 h 0,0 UV-I 18 W/m 4,4 C 4,3 C 12,9 km/h (3 Bft)
09.01.2018 09:00 22,8 C 5,9 C 56 % 92 % 1015,9 hPa 0,0 l/m 8,8 km/h (2 Bft) O 0,00 h 0,0 UV-I 57 W/m 4,7 C 3,9 C 18,7 km/h (3 Bft)
09.01.2018 10:00 22,7 C 6,5 C 55 % 91 % 1015,8 hPa 0,0 l/m 8,3 km/h (2 Bft) O-SO 0,00 h 0,5 UV-I 91 W/m 5,1 C 4,7 C 16,0 km/h (3 Bft)
09.01.2018 11:00 22,7 C 7,1 C 54 % 90 % 1015,6 hPa 0,0 l/m 4,9 km/h (1 Bft) O-SO 0,00 h 0,6 UV-I 107 W/m 5,5 C 6,6 C 10,1 km/h (2 Bft)
09.01.2018 12:00 22,7 C 7,4 C 53 % 89 % 1015,2 hPa 0,0 l/m 3,8 km/h (1 Bft) O-SO 0,00 h 0,5 UV-I 70 W/m 5,7 C 7,1 C 8,7 km/h (2 Bft)
09.01.2018 13:00 22,8 C 7,3 C 53 % 89 % 1014,7 hPa 0,0 l/m 2,7 km/h (1 Bft) O-SO 0,00 h 0,0 UV-I 33 W/m 5,7 C 7,3 C 7,8 km/h (2 Bft)
09.01.2018 14:00 22,9 C 7,4 C 54 % 90 % 1014,3 hPa 0,0 l/m 1,7 km/h (1 Bft) O-NO 0,00 h 0,0 UV-I 43 W/m 5,9 C 7,2 C 3,7 km/h (1 Bft)
09.01.2018 15:00 23,1 C 7,7 C 54 % 90 % 1013,4 hPa 0,0 l/m 3,0 km/h (1 Bft) O 0,00 h 0,0 UV-I 61 W/m 6,1 C 7,5 C 7,1 km/h (2 Bft)
09.01.2018 16:00 23,1 C 7,2 C 54 % 89 % 1013,8 hPa 0,0 l/m 2,0 km/h (1 Bft) O 0,00 h 0,0 UV-I 13 W/m 5,6 C 7,1 C 4,7 km/h (1 Bft)
09.01.2018 17:00 23,1 C 6,7 C 57 % 91 % 1013,8 hPa 0,0 l/m 0,1 km/h (0 Bft) O 0,00 h 0,0 UV-I 0 W/m 5,2 C 6,7 C 0,3 km/h (0 Bft)
09.01.2018 18:00 23,1 C 6,3 C 58 % 92 % 1013,6 hPa 0,0 l/m 1,2 km/h (1 Bft) O-NO 0,00 h 0,0 UV-I 0 W/m 5,0 C 6,3 C 3,0 km/h (1 Bft)
09.01.2018 19:00 23,1 C 5,8 C 59 % 93 % 1013,7 hPa 0,0 l/m 0,1 km/h (0 Bft) O-NO 0,00 h 0,0 UV-I 0 W/m 4,7 C 5,8 C 0,5 km/h (0 Bft)
09.01.2018 20:00 23,2 C 5,5 C 59 % 94 % 1013,9 hPa 0,0 l/m 0,5 km/h (0 Bft) O 0,00 h 0,0 UV-I 0 W/m 4,6 C 5,5 C 1,4 km/h (1 Bft)
09.01.2018 21:00 23,2 C 5,1 C 60 % 93 % 1013,7 hPa 0,0 l/m 0,3 km/h (0 Bft) O-NO 0,00 h 0,0 UV-I 0 W/m 4,1 C 5,1 C 0,8 km/h (0 Bft)
09.01.2018 22:00 23,2 C 3,7 C 60 % 92 % 1013,5 hPa 0,0 l/m 0,3 km/h (0 Bft) N 0,00 h 0,0 UV-I 0 W/m 2,5 C 3,7 C 0,5 km/h (0 Bft)
09.01.2018 23:00 23,2 C 2,3 C 60 % 93 % 1013,8 hPa 0,0 l/m 0,0 km/h (0 Bft) N 0,00 h 0,0 UV-I 0 W/m 1,3 C 2,3 C 0,0 km/h (0 Bft)
10.01.2018 00:00 23,1 C 1,1 C 61 % 93 % 1014,1 hPa 0,0 l/m 0,0 km/h (0 Bft) N 0,00 h 0,0 UV-I 0 W/m 0,1 C 1,1 C 0,0 km/h (0 Bft)
10.01.2018 01:00 22,9 C 0,2 C 62 % 94 % 1014,1 hPa 0,0 l/m 0,0 km/h (0 Bft) N 0,00 h 0,0 UV-I 0 W/m -0,7 C 0,2 C 0,0 km/h (0 Bft)
10.01.2018 02:00 22,8 C -0,1 C 63 % 95 % 1014,4 hPa 0,0 l/m 0,7 km/h (0 Bft) N 0,00 h 0,0 UV-I 0 W/m -0,8 C -0,1 C 1,4 km/h (1 Bft)
10.01.2018 03:00 22,7 C -0,0 C 63 % 96 % 1014,6 hPa 0,0 l/m 0,0 km/h (0 Bft) N 0,00 h 0,0 UV-I 0 W/m -0,6 C -0,0 C 0,0 km/h (0 Bft)
10.01.2018 04:00 22,6 C 0,2 C 62 % 96 % 1014,5 hPa 0,0 l/m 0,0 km/h (0 Bft) N 0,00 h 0,0 UV-I 0 W/m -0,3 C 0,2 C 0,0 km/h (0 Bft)
10.01.2018 05:00 22,5 C 0,5 C 62 % 97 % 1014,6 hPa 0,0 l/m 0,0 km/h (0 Bft) N 0,00 h 0,0 UV-I 0 W/m 0,1 C 0,5 C 0,0 km/h (0 Bft)
10.01.2018 06:00 22,5 C 0,6 C 61 % 97 % 1014,6 hPa 0,0 l/m 0,0 km/h (0 Bft) N 0,00 h 0,0 UV-I 0 W/m 0,2 C 0,6 C 0,0 km/h (0 Bft)
10.01.2018 07:00 22,7 C 0,8 C 61 % 97 % 1014,4 hPa 0,0 l/m 0,0 km/h (0 Bft) N 0,00 h 0,0 UV-I 0 W/m 0,3 C 0,8 C 0,0 km/h (0 Bft)
10.01.2018 08:00 23,0 C 1,0 C 60 % 97 % 1014,5 hPa 0,0 l/m 0,0 km/h (0 Bft) N 0,00 h 0,0 UV-I 15 W/m 0,6 C 1,0 C 0,0 km/h (0 Bft)
10.01.2018 09:00 23,0 C 1,1 C 60 % 97 % 1014,7 hPa 0,0 l/m 0,0 km/h (0 Bft) N 0,00 h 0,0 UV-I 40 W/m 0,7 C 1,1 C 0,0 km/h (0 Bft)
10.01.2018 10:00 22,9 C 1,6 C 61 % 97 % 1014,6 hPa 0,0 l/m 0,0 km/h (0 Bft) N 0,00 h 0,5 UV-I 81 W/m 1,2 C 1,6 C 0,0 km/h (0 Bft)
10.01.2018 11:00 23,0 C 2,7 C 61 % 98 % 1014,0 hPa 0,0 l/m 0,0 km/h (0 Bft) N 0,10 h 0,5 UV-I 130 W/m 2,4 C 2,7 C 0,0 km/h (0 Bft)
10.01.2018 12:00 23,1 C 4,1 C 60 % 98 % 1013,3 hPa 0,0 l/m 0,0 km/h (0 Bft) N 0,53 h 0,6 UV-I 151 W/m 3,8 C 4,1 C 0,0 km/h (0 Bft)
10.01.2018 13:00 23,3 C 5,0 C 57 % 98 % 1012,7 hPa 0,0 l/m 0,0 km/h (0 Bft) N 0,37 h 0,6 UV-I 148 W/m 4,7 C 5,0 C 0,0 km/h (0 Bft)
10.01.2018 14:00 23,3 C 4,5 C 54 % 97 % 1012,7 hPa 0,0 l/m 0,3 km/h (0 Bft) W-NW 0,00 h 0,5 UV-I 79 W/m 4,2 C 4,5 C 0,6 km/h (0 Bft)
10.01.2018 15:00 23,1 C 4,1 C 55 % 97 % 1013,2 hPa 0,0 l/m 0,0 km/h (0 Bft) N 0,00 h 0,0 UV-I 23 W/m 3,7 C 4,1 C 0,0 km/h (0 Bft)
10.01.2018 16:00 22,9 C 3,7 C 55 % 97 % 1013,5 hPa 0,0 l/m 0,0 km/h (0 Bft) N 0,00 h 0,0 UV-I 7 W/m 3,3 C 3,7 C 0,0 km/h (0 Bft)
10.01.2018 17:00 22,8 C 2,6 C 55 % 97 % 1013,7 hPa 0,0 l/m 0,0 km/h (0 Bft) N 0,00 h 0,0 UV-I 0 W/m 2,2 C 2,6 C 0,0 km/h (0 Bft)
10.01.2018 18:00 22,8 C 1,5 C 56 % 97 % 1013,9 hPa 0,0 l/m 0,0 km/h (0 Bft) N 0,00 h 0,0 UV-I 0 W/m 1,0 C 1,5 C 0,0 km/h (0 Bft)
10.01.2018 19:00 22,9 C 0,5 C 57 % 96 % 1014,1 hPa 0,0 l/m 0,0 km/h (0 Bft) N 0,00 h 0,0 UV-I 0 W/m -0,0 C 0,5 C 0,0 km/h (0 Bft)
10.01.2018 20:00 22,8 C -0,1 C 58 % 97 % 1014,3 hPa 0,0 l/m 0,0 km/h (0 Bft) N 0,00 h 0,0 UV-I 0 W/m -0,6 C -0,1 C 0,0 km/h (0 Bft)
10.01.2018 21:00 22,8 C -0,7 C 59 % 97 % 1014,3 hPa 0,0 l/m 0,0 km/h (0 Bft) N 0,00 h 0,0 UV-I 0 W/m -1,1 C -0,7 C 0,0 km/h (0 Bft)
10.01.2018 22:00 22,8 C -0,8 C 59 % 97 % 1014,2 hPa 0,0 l/m 0,0 km/h (0 Bft) N 0,00 h 0,0 UV-I 0 W/m -1,2 C -0,8 C 0,0 km/h (0 Bft)
10.01.2018 23:00 22,9 C -1,1 C 59 % 97 % 1014,3 hPa 0,0 l/m 0,0 km/h (0 Bft) N 0,00 h 0,0 UV-I 0 W/m -1,5 C -1,1 C 0,0 km/h (0 Bft)
11.01.2018 00:00 22,8 C -1,6 C 59 % 97 % 1014,2 hPa 0,0 l/m 0,0 km/h (0 Bft) N 0,00 h 0,0 UV-I 0 W/m -2,0 C -1,6 C 0,0 km/h (0 Bft)
11.01.2018 01:00 22,7 C -1,7 C 61 % 97 % 1014,3 hPa 0,0 l/m 0,0 km/h (0 Bft) N 0,00 h 0,0 UV-I 0 W/m -2,1 C -1,7 C 0,0 km/h (0 Bft)
11.01.2018 02:00 22,6 C -2,1 C 61 % 97 % 1014,5 hPa 0,0 l/m 0,0 km/h (0 Bft) N 0,00 h 0,0 UV-I 0 W/m -2,5 C -2,1 C 0,0 km/h (0 Bft)
11.01.2018 03:00 22,4 C -2,0 C 62 % 97 % 1014,8 hPa 0,0 l/m 0,0 km/h (0 Bft) N 0,00 h 0,0 UV-I 0 W/m -2,4 C -2,0 C 0,0 km/h (0 Bft)
11.01.2018 04:00 22,4 C -1,3 C 61 % 97 % 1014,9 hPa 0,0 l/m 0,0 km/h (0 Bft) N 0,00 h 0,0 UV-I 0 W/m -1,8 C -1,3 C 0,0 km/h (0 Bft)
11.01.2018 05:00 22,3 C -1,2 C 61 % 97 % 1015,0 hPa 0,0 l/m 0,0 km/h (0 Bft) N 0,00 h 0,0 UV-I 0 W/m -1,6 C -1,2 C 0,0 km/h (0 Bft)
11.01.2018 06:00 22,4 C -1,1 C 61 % 97 % 1015,3 hPa 0,0 l/m 0,0 km/h (0 Bft) N 0,00 h 0,0 UV-I 0 W/m -1,5 C -1,1 C 0,0 km/h (0 Bft)
11.01.2018 07:00 22,6 C -1,3 C 60 % 97 % 1015,8 hPa 0,0 l/m 0,0 km/h (0 Bft) N 0,00 h 0,0 UV-I 0 W/m -1,7 C -1,3 C 0,0 km/h (0 Bft)
11.01.2018 08:00 22,6 C -1,4 C 60 % 97 % 1016,2 hPa 0,0 l/m 0,0 km/h (0 Bft) N 0,00 h 0,0 UV-I 8 W/m -1,8 C -1,4 C 0,0 km/h (0 Bft)
11.01.2018 09:00 22,6 C -1,3 C 60 % 97 % 1016,9 hPa 0,0 l/m 0,0 km/h (0 Bft) N 0,00 h 0,0 UV-I 24 W/m -1,8 C -1,3 C 0,0 km/h (0 Bft)
11.01.2018 10:00 22,6 C -1,1 C 59 % 98 % 1017,4 hPa 0,0 l/m 0,0 km/h (0 Bft) N 0,00 h 0,0 UV-I 35 W/m -1,4 C -1,1 C 0,0 km/h (0 Bft)
11.01.2018 11:00 22,6 C -0,7 C 59 % 98 % 1017,3 hPa 0,0 l/m 0,0 km/h (0 Bft) N 0,00 h 0,5 UV-I 85 W/m -1,0 C -0,7 C 0,0 km/h (0 Bft)
11.01.2018 12:00 22,6 C -0,2 C 59 % 98 % 1017,1 hPa 0,0 l/m 0,0 km/h (0 Bft) N 0,00 h 0,5 UV-I 96 W/m -0,5 C -0,2 C 0,0 km/h (0 Bft)
11.01.2018 13:00 22,6 C 0,3 C 59 % 98 % 1017,3 hPa 0,0 l/m 0,0 km/h (0 Bft) N 0,00 h 0,5 UV-I 115 W/m 0,1 C 0,3 C 0,0 km/h (0 Bft)
11.01.2018 14:00 22,8 C 0,8 C 59 % 98 % 1017,8 hPa 0,0 l/m 0,0 km/h (0 Bft) N 0,00 h 0,0 UV-I 59 W/m 0,5 C 0,8 C 0,0 km/h (0 Bft)
11.01.2018 15:00 22,8 C 0,7 C 59 % 98 % 1018,4 hPa 0,0 l/m 0,0 km/h (0 Bft) N 0,00 h 0,0 UV-I 24 W/m 0,4 C 0,7 C 0,0 km/h (0 Bft)
11.01.2018 16:00 22,8 C 0,6 C 60 % 98 % 1018,8 hPa 0,0 l/m 0,0 km/h (0 Bft) N 0,00 h 0,0 UV-I 6 W/m 0,3 C 0,6 C 0,0 km/h (0 Bft)
11.01.2018 17:00 22,8 C 0,4 C 60 % 98 % 1019,6 hPa 0,0 l/m 0,0 km/h (0 Bft) N 0,00 h 0,0 UV-I 0 W/m 0,1 C 0,4 C 0,0 km/h (0 Bft)
11.01.2018 18:00 22,8 C 0,1 C 61 % 98 % 1020,1 hPa 0,0 l/m 0,0 km/h (0 Bft) N 0,00 h 0,0 UV-I 0 W/m -0,2 C 0,1 C 0,0 km/h (0 Bft)
11.01.2018 19:00 22,8 C -0,2 C 60 % 98 % 1020,7 hPa 0,0 l/m 0,0 km/h (0 Bft) N 0,00 h 0,0 UV-I 0 W/m -0,5 C -0,2 C 0,0 km/h (0 Bft)
11.01.2018 20:00 22,8 C -0,2 C 60 % 98 % 1021,0 hPa 0,0 l/m 0,0 km/h (0 Bft) N 0,00 h 0,0 UV-I 0 W/m -0,5 C -0,2 C 0,0 km/h (0 Bft)
11.01.2018 21:00 22,9 C -0,3 C 60 % 98 % 1021,6 hPa 0,0 l/m 0,0 km/h (0 Bft) N 0,00 h 0,0 UV-I 0 W/m -0,6 C -0,3 C 0,0 km/h (0 Bft)
11.01.2018 22:00 22,9 C -0,3 C 61 % 98 % 1021,9 hPa 0,0 l/m 0,0 km/h (0 Bft) N 0,00 h 0,0 UV-I 0 W/m -0,5 C -0,3 C 0,0 km/h (0 Bft)
11.01.2018 23:00 22,9 C -0,2 C 61 % 98 % 1022,3 hPa 0,0 l/m 0,0 km/h (0 Bft) N 0,00 h 0,0 UV-I 0 W/m -0,5 C -0,2 C 0,0 km/h (0 Bft)
12.01.2018 00:00 22,8 C -0,2 C 62 % 98 % 1022,7 hPa 0,0 l/m 0,0 km/h (0 Bft) N 0,00 h 0,0 UV-I 0 W/m -0,5 C -0,2 C 0,0 km/h (0 Bft)
12.01.2018 01:00 22,6 C -0,0 C 62 % 98 % 1023,1 hPa 0,0 l/m 0,0 km/h (0 Bft) N 0,00 h 0,0 UV-I 0 W/m -0,3 C -0,0 C 0,0 km/h (0 Bft)
12.01.2018 02:00 22,4 C 0,0 C 62 % 98 % 1023,5 hPa 0,0 l/m 0,0 km/h (0 Bft) N 0,00 h 0,0 UV-I 0 W/m -0,2 C 0,0 C 0,0 km/h (0 Bft)
12.01.2018 03:00 22,4 C 0,1 C 63 % 98 % 1023,9 hPa 0,0 l/m 0,0 km/h (0 Bft) N 0,00 h 0,0 UV-I 0 W/m -0,2 C 0,1 C 0,0 km/h (0 Bft)
12.01.2018 04:00 22,3 C 0,1 C 63 % 98 % 1024,2 hPa 0,0 l/m 0,0 km/h (0 Bft) N 0,00 h 0,0 UV-I 0 W/m -0,1 C 0,1 C 0,0 km/h (0 Bft)
12.01.2018 05:00 22,3 C 0,2 C 63 % 98 % 1024,3 hPa 0,0 l/m 0,0 km/h (0 Bft) N 0,00 h 0,0 UV-I 0 W/m -0,1 C 0,2 C 0,0 km/h (0 Bft)
12.01.2018 06:00 22,5 C 0,2 C 62 % 98 % 1024,5 hPa 0,0 l/m 0,0 km/h (0 Bft) N 0,00 h 0,0 UV-I 0 W/m -0,1 C 0,2 C 0,0 km/h (0 Bft)
12.01.2018 07:00 22,6 C 0,2 C 61 % 98 % 1025,0 hPa 0,0 l/m 0,0 km/h (0 Bft) N 0,00 h 0,0 UV-I 0 W/m -0,0 C 0,2 C 0,0 km/h (0 Bft)
12.01.2018 08:00 22,7 C 0,3 C 61 % 98 % 1025,5 hPa 0,0 l/m 0,0 km/h (0 Bft) N 0,00 h 0,0 UV-I 16 W/m 0,0 C 0,3 C 0,0 km/h (0 Bft)
12.01.2018 09:00 22,8 C 0,7 C 61 % 98 % 1025,9 hPa 0,0 l/m 0,0 km/h (0 Bft) N 0,12 h 0,0 UV-I 85 W/m 0,4 C 0,7 C 0,0 km/h (0 Bft)
12.01.2018 10:00 22,8 C 2,1 C 61 % 98 % 1026,2 hPa 0,0 l/m 0,0 km/h (0 Bft) N 0,37 h 0,5 UV-I 150 W/m 1,8 C 2,1 C 0,0 km/h (0 Bft)
12.01.2018 11:00 23,0 C 2,2 C 61 % 97 % 1026,3 hPa 0,0 l/m 0,0 km/h (0 Bft) N 0,00 h 0,5 UV-I 85 W/m 1,8 C 2,2 C 0,0 km/h (0 Bft)
12.01.2018 12:00 23,1 C 2,3 C 60 % 97 % 1026,4 hPa 0,0 l/m 0,0 km/h (0 Bft) N 0,00 h 0,5 UV-I 81 W/m 1,9 C 2,3 C 0,0 km/h (0 Bft)
12.01.2018 13:00 23,1 C 2,8 C 60 % 96 % 1026,3 hPa 0,0 l/m 0,0 km/h (0 Bft) N 0,00 h 0,5 UV-I 68 W/m 2,2 C 2,8 C 0,0 km/h (0 Bft)
12.01.2018 14:00 23,0 C 3,0 C 60 % 96 % 1026,4 hPa 0,0 l/m 0,0 km/h (0 Bft) N 0,00 h 0,0 UV-I 34 W/m 2,4 C 3,0 C 0,0 km/h (0 Bft)
12.01.2018 15:00 22,9 C 3,2 C 59 % 96 % 1026,7 hPa 0,0 l/m 0,0 km/h (0 Bft) N 0,00 h 0,0 UV-I 21 W/m 2,6 C 3,2 C 0,0 km/h (0 Bft)
12.01.2018 16:00 22,9 C 3,2 C 59 % 95 % 1027,0 hPa 0,0 l/m 0,0 km/h (0 Bft) N 0,00 h 0,0 UV-I 9 W/m 2,5 C 3,2 C 0,0 km/h (0 Bft)
12.01.2018 17:00 22,9 C 3,1 C 59 % 96 % 1027,3 hPa 0,0 l/m 0,0 km/h (0 Bft) N 0,00 h 0,0 UV-I 0 W/m 2,5 C 3,1 C 0,0 km/h (0 Bft)
12.01.2018 18:00 23,2 C 2,8 C 60 % 96 % 1027,4 hPa 0,0 l/m 0,0 km/h (0 Bft) N 0,00 h 0,0 UV-I 0 W/m 2,2 C 2,8 C 0,0 km/h (0 Bft)
12.01.2018 19:00 23,3 C 2,4 C 60 % 96 % 1027,6 hPa 0,0 l/m 0,0 km/h (0 Bft) N 0,00 h 0,0 UV-I 0 W/m 1,9 C 2,4 C 0,0 km/h (0 Bft)
12.01.2018 20:00 23,1 C 2,2 C 60 % 96 % 1027,9 hPa 0,0 l/m 0,0 km/h (0 Bft) N 0,00 h 0,0 UV-I 0 W/m 1,6 C 2,2 C 0,0 km/h (0 Bft)
12.01.2018 21:00 22,9 C 2,1 C 61 % 96 % 1028,1 hPa 0,0 l/m 0,0 km/h (0 Bft) N 0,00 h 0,0 UV-I 0 W/m 1,6 C 2,1 C 0,0 km/h (0 Bft)
12.01.2018 22:00 22,9 C 1,9 C 61 % 96 % 1028,1 hPa 0,0 l/m 0,0 km/h (0 Bft) N 0,00 h 0,0 UV-I 0 W/m 1,3 C 1,9 C 0,0 km/h (0 Bft)
12.01.2018 23:00 22,9 C 2,1 C 61 % 97 % 1028,1 hPa 0,0 l/m 0,0 km/h (0 Bft) N 0,00 h 0,0 UV-I 0 W/m 1,7 C 2,1 C 0,0 km/h (0 Bft)
13.01.2018 00:00 22,8 C 2,4 C 62 % 97 % 1028,0 hPa 0,0 l/m 0,0 km/h (0 Bft) N 0,00 h 0,0 UV-I 0 W/m 2,0 C 2,4 C 0,0 km/h (0 Bft)
13.01.2018 01:00 22,5 C 2,5 C 63 % 96 % 1027,9 hPa 0,0 l/m 0,0 km/h (0 Bft) N 0,00 h 0,0 UV-I 0 W/m 1,9 C 2,5 C 0,0 km/h (0 Bft)
13.01.2018 02:00 22,4 C 2,7 C 63 % 93 % 1027,9 hPa 0,0 l/m 0,1 km/h (0 Bft) O-NO 0,00 h 0,0 UV-I 0 W/m 1,7 C 2,7 C 0,4 km/h (0 Bft)
13.01.2018 03:00 22,4 C 2,8 C 63 % 89 % 1027,7 hPa 0,0 l/m 0,1 km/h (0 Bft) NO 0,00 h 0,0 UV-I 0 W/m 1,2 C 2,8 C 0,7 km/h (0 Bft)
13.01.2018 04:00 22,4 C 2,8 C 63 % 88 % 1027,4 hPa 0,0 l/m 0,0 km/h (0 Bft) N 0,00 h 0,0 UV-I 0 W/m 1,0 C 2,8 C 0,0 km/h (0 Bft)
13.01.2018 05:00 22,4 C 2,7 C 63 % 89 % 1027,2 hPa 0,0 l/m 0,1 km/h (0 Bft) NO 0,00 h 0,0 UV-I 0 W/m 1,1 C 2,7 C 0,3 km/h (0 Bft)
13.01.2018 06:00 22,6 C 2,6 C 63 % 88 % 1027,2 hPa 0,0 l/m 2,8 km/h (1 Bft) O-NO 0,00 h 0,0 UV-I 0 W/m 0,9 C 2,5 C 7,1 km/h (2 Bft)
13.01.2018 07:00 22,8 C 2,4 C 62 % 88 % 1027,2 hPa 0,0 l/m 3,4 km/h (1 Bft) NO 0,00 h 0,0 UV-I 0 W/m 0,7 C 2,2 C 7,2 km/h (2 Bft)
13.01.2018 08:00 22,8 C 2,2 C 62 % 89 % 1027,3 hPa 0,0 l/m 5,4 km/h (1 Bft) O-NO 0,00 h 0,0 UV-I 7 W/m 0,6 C 1,6 C 11,3 km/h (2 Bft)
13.01.2018 09:00 22,9 C 1,8 C 62 % 89 % 1027,4 hPa 0,0 l/m 5,4 km/h (1 Bft) NO 0,00 h 0,0 UV-I 11 W/m 0,2 C 0,9 C 10,8 km/h (2 Bft)
13.01.2018 10:00 22,9 C 1,6 C 63 % 89 % 1027,4 hPa 0,0 l/m 5,0 km/h (1 Bft) O-NO 0,00 h 0,0 UV-I 28 W/m -0,1 C 1,1 C 10,5 km/h (2 Bft)
13.01.2018 11:00 22,8 C 1,8 C 61 % 88 % 1027,1 hPa 0,0 l/m 4,2 km/h (1 Bft) O-NO 0,00 h 0,0 UV-I 42 W/m 0,1 C 1,6 C 8,7 km/h (2 Bft)
13.01.2018 12:00 22,6 C 1,8 C 57 % 87 % 1026,8 hPa 0,0 l/m 5,4 km/h (1 Bft) O-NO 0,00 h 0,0 UV-I 29 W/m -0,1 C 1,4 C 10,6 km/h (2 Bft)
13.01.2018 13:00 22,7 C 1,6 C 57 % 86 % 1026,3 hPa 0,0 l/m 5,3 km/h (1 Bft) O-NO 0,00 h 0,0 UV-I 39 W/m -0,4 C 1,0 C 10,2 km/h (2 Bft)
13.01.2018 14:00 22,7 C 1,3 C 57 % 85 % 1026,0 hPa 0,0 l/m 6,9 km/h (2 Bft) O-NO 0,00 h 0,0 UV-I 27 W/m -1,0 C -0,1 C 13,0 km/h (3 Bft)
13.01.2018 15:00 22,7 C 0,8 C 58 % 84 % 1025,9 hPa 0,0 l/m 7,0 km/h (2 Bft) O-NO 0,00 h 0,0 UV-I 14 W/m -1,5 C -0,6 C 13,1 km/h (3 Bft)
13.01.2018 16:00 22,8 C 0,0 C 58 % 84 % 1026,1 hPa 0,0 l/m 10,7 km/h (2 Bft) O-NO 0,00 h 0,0 UV-I 6 W/m -2,4 C -3,9 C 18,0 km/h (3 Bft)
13.01.2018 17:00 22,8 C -0,6 C 58 % 84 % 1026,2 hPa 0,0 l/m 6,6 km/h (2 Bft) O 0,00 h 0,0 UV-I 0 W/m -3,0 C -2,1 C 13,0 km/h (3 Bft)
13.01.2018 18:00 22,7 C -1,0 C 59 % 84 % 1026,4 hPa 0,0 l/m 6,1 km/h (2 Bft) O-NO 0,00 h 0,0 UV-I 0 W/m -3,3 C -2,2 C 12,0 km/h (2 Bft)
13.01.2018 19:00 22,7 C -1,5 C 60 % 84 % 1026,4 hPa 0,0 l/m 10,0 km/h (2 Bft) O-NO 0,00 h 0,0 UV-I 0 W/m -3,9 C -5,1 C 18,4 km/h (3 Bft)
13.01.2018 20:00 22,6 C -1,6 C 61 % 82 % 1026,0 hPa 0,0 l/m 5,8 km/h (2 Bft) NO 0,00 h 0,0 UV-I 0 W/m -4,2 C -2,7 C 11,1 km/h (2 Bft)
13.01.2018 21:00 22,6 C -1,4 C 61 % 82 % 1025,9 hPa 0,0 l/m 4,3 km/h (1 Bft) O-NO 0,00 h 0,0 UV-I 0 W/m -4,1 C -1,7 C 9,2 km/h (2 Bft)
13.01.2018 22:00 22,7 C -1,3 C 62 % 80 % 1025,8 hPa 0,0 l/m 3,6 km/h (1 Bft) O-NO 0,00 h 0,0 UV-I 0 W/m -4,3 C -1,5 C 7,6 km/h (2 Bft)
13.01.2018 23:00 22,8 C -1,4 C 62 % 83 % 1025,6 hPa 0,0 l/m 4,0 km/h (1 Bft) NO 0,00 h 0,0 UV-I 0 W/m -3,9 C -1,5 C 8,2 km/h (2 Bft)
14.01.2018 00:00 22,7 C -1,1 C 62 % 84 % 1025,2 hPa 0,0 l/m 3,5 km/h (1 Bft) O-SO 0,00 h 0,0 UV-I 0 W/m -3,4 C -1,3 C 7,7 km/h (2 Bft)
14.01.2018 01:00 22,5 C -1,1 C 62 % 87 % 1024,9 hPa 0,0 l/m 2,9 km/h (1 Bft) O-SO 0,00 h 0,0 UV-I 0 W/m -2,9 C -1,2 C 7,2 km/h (2 Bft)
14.01.2018 02:00 22,3 C -0,9 C 62 % 90 % 1024,7 hPa 0,0 l/m 3,5 km/h (1 Bft) O-SO 0,00 h 0,0 UV-I 0 W/m -2,4 C -1,2 C 7,8 km/h (2 Bft)
14.01.2018 03:00 22,3 C -0,6 C 62 % 90 % 1024,4 hPa 0,0 l/m 5,8 km/h (2 Bft) O-SO 0,00 h 0,0 UV-I 0 W/m -2,1 C -1,3 C 11,7 km/h (2 Bft)
14.01.2018 04:00 22,2 C -0,3 C 63 % 88 % 1024,2 hPa 0,0 l/m 4,4 km/h (1 Bft) O-SO 0,00 h 0,0 UV-I 0 W/m -2,0 C -0,7 C 9,3 km/h (2 Bft)
14.01.2018 05:00 22,2 C -0,2 C 63 % 87 % 1024,2 hPa 0,0 l/m 4,6 km/h (1 Bft) O-SO 0,00 h 0,0 UV-I 0 W/m -2,1 C -0,7 C 9,9 km/h (2 Bft)
14.01.2018 06:00 22,3 C -0,1 C 63 % 85 % 1024,2 hPa 0,0 l/m 7,0 km/h (2 Bft) O 0,00 h 0,0 UV-I 0 W/m -2,4 C -1,8 C 13,3 km/h (3 Bft)
14.01.2018 07:00 22,5 C -0,1 C 62 % 83 % 1024,4 hPa 0,0 l/m 5,8 km/h (2 Bft) O 0,00 h 0,0 UV-I 0 W/m -2,6 C -1,0 C 12,2 km/h (2 Bft)
14.01.2018 08:00 22,6 C -0,1 C 62 % 82 % 1024,8 hPa 0,0 l/m 4,8 km/h (1 Bft) O 0,00 h 0,0 UV-I 8 W/m -2,8 C -0,6 C 11,4 km/h (2 Bft)
14.01.2018 09:00 22,7 C -0,1 C 61 % 81 % 1025,1 hPa 0,0 l/m 5,4 km/h (1 Bft) O-SO 0,00 h 0,0 UV-I 18 W/m -3,0 C -0,9 C 10,9 km/h (2 Bft)
14.01.2018 10:00 22,8 C -0,1 C 61 % 81 % 1025,3 hPa 0,0 l/m 5,8 km/h (2 Bft) O-SO 0,00 h 0,0 UV-I 27 W/m -3,0 C -0,8 C 12,5 km/h (3 Bft)
14.01.2018 11:00 22,7 C 0,0 C 60 % 81 % 1025,1 hPa 0,0 l/m 4,4 km/h (1 Bft) O 0,00 h 0,0 UV-I 35 W/m -2,8 C -0,7 C 8,5 km/h (2 Bft)
14.01.2018 12:00 22,6 C 0,2 C 60 % 81 % 1024,8 hPa 0,0 l/m 5,8 km/h (2 Bft) O-NO 0,00 h 0,0 UV-I 61 W/m -2,7 C -0,8 C 11,5 km/h (2 Bft)
14.01.2018 13:00 22,6 C 0,2 C 60 % 81 % 1024,3 hPa 0,0 l/m 4,3 km/h (1 Bft) O-NO 0,00 h 0,0 UV-I 43 W/m -2,6 C -0,1 C 9,7 km/h (2 Bft)
14.01.2018 14:00 22,6 C 0,2 C 59 % 81 % 1024,1 hPa 0,0 l/m 4,7 km/h (1 Bft) O-NO 0,00 h 0,0 UV-I 30 W/m -2,7 C -0,4 C 10,4 km/h (2 Bft)
14.01.2018 15:00 22,6 C -0,0 C 59 % 81 % 1024,4 hPa 0,0 l/m 6,3 km/h (2 Bft) O 0,00 h 0,0 UV-I 9 W/m -2,8 C -1,0 C 12,1 km/h (2 Bft)
14.01.2018 16:00 22,6 C -0,2 C 59 % 82 % 1024,4 hPa 0,0 l/m 6,1 km/h (2 Bft) O 0,00 h 0,0 UV-I 0 W/m -2,9 C -1,3 C 11,9 km/h (2 Bft)
14.01.2018 17:00 22,6 C -0,3 C 59 % 82 % 1024,4 hPa 0,0 l/m 6,3 km/h (2 Bft) O-NO 0,00 h 0,0 UV-I 0 W/m -3,0 C -1,6 C 12,1 km/h (2 Bft)
14.01.2018 18:00 22,6 C -0,3 C 61 % 82 % 1024,4 hPa 0,0 l/m 3,7 km/h (1 Bft) O 0,00 h 0,0 UV-I 0 W/m -3,0 C -0,7 C 8,8 km/h (2 Bft)
14.01.2018 19:00 22,7 C -0,4 C 62 % 83 % 1024,7 hPa 0,0 l/m 4,6 km/h (1 Bft) O 0,00 h 0,0 UV-I 0 W/m -2,9 C -0,7 C 9,8 km/h (2 Bft)
14.01.2018 20:00 22,7 C -0,5 C 62 % 85 % 1024,8 hPa 0,0 l/m 4,7 km/h (1 Bft) O-SO 0,00 h 0,0 UV-I 0 W/m -2,8 C -1,1 C 10,3 km/h (2 Bft)
14.01.2018 21:00 22,7 C -0,6 C 62 % 86 % 1024,8 hPa 0,0 l/m 5,0 km/h (1 Bft) O-SO 0,00 h 0,0 UV-I 0 W/m -2,7 C -1,3 C 10,0 km/h (2 Bft)
14.01.2018 22:00 22,7 C -0,7 C 61 % 86 % 1024,8 hPa 0,0 l/m 7,7 km/h (2 Bft) O-SO 0,00 h 0,0 UV-I 0 W/m -2,7 C -2,6 C 13,4 km/h (3 Bft)
14.01.2018 23:00 22,7 C -0,8 C 62 % 86 % 1024,7 hPa 0,0 l/m 3,4 km/h (1 Bft) SO 0,00 h 0,0 UV-I 0 W/m -2,8 C -0,9 C 7,0 km/h (2 Bft)
Min-Datum _ 12.01.18 11.01.18 09.01.18 13.01.18 10.01.18 - 08.01.18 - - - - 13.01.18 13.01.18 08.01.18
_ Min-Zeit 05:19 02:47 12:12 22:20 13:34 - 02:57 - - - - 22:20 19:31 02:57
Minimum _ 22,2 C -2,3 C 53 % 79 % 1012,6 hPa - 0,0 km/h (0 Bft) - - - - -4,5 C -8,6 C 0,0 km/h (0 Bft)
Max-Datum _ 08.01.18 09.01.18 13.01.18 12.01.18 12.01.18 09.01.18 08.01.18 - 10.01.18 10.01.18 12.01.18 09.01.18 09.01.18 08.01.18
_ Max-Zeit 00:00 15:15 03:01 10:16 22:00 00:43 16:00 - 11:19 12:41 10:19 15:12 15:15 15:44
Maximum _ 24,2 C 7,9 C 64 % 99 % 1028,2 hPa 0,2 l/m 22,5 km/h
O-NO (4 Bft)
- 0,02 h 0,7 UV-I 308 W/m 6,4 C 7,9 C 35,4 km/h
O-NO (5 Bft)
Durchschnitt _ 22,8 C 1,6 C 60 % 92 % 1021,5 hPa #0,2 l/m 2,9 km/h (1 Bft) O-NO #1:29 h 0,5 UV-I 46 W/m 0,5 C 1,1 C 5,9 km/h (2 Bft)